#timestamp,LO_Frequency,Hit,StdDev 
1502838015.7,286047002.8,N,1.5
1502838035.6,286047000.9,N,1.4
1502838055.4,286047002.8,N,1.5
1502838075.2,286047000.3,N,1.5
1502838095.1,286047002.7,N,1.5
1502838096.0,286047002.7,N,1.6
1502838115.8,286047000.0,N,1.6
1502838135.7,286046999.7,N,1.5
1502838155.5,286047002.5,N,1.6
1502838175.3,286047002.2,N,1.6
1502838195.2,286047002.2,N,1.6
1502838215.0,286047002.3,N,1.6
1502838215.9,286047002.3,N,1.6
1502838235.8,286047002.4,N,1.6
1502838255.6,286047002.2,N,1.5
1502838275.4,286047002.6,N,1.5
1502838295.3,286047002.3,N,1.5
1502838315.1,286047002.3,N,1.5
1502838335.8,286047002.7,N,1.5
1502838355.7,286047000.2,N,1.3
1502838375.5,286046999.8,N,1.2
1502838395.4,286046999.8,N,1.1
1502838415.2,286046999.9,N,1.1
1502838435.0,286047001.0,N,1.1
1502838435.9,286047001.0,N,1.1
1502838455.8,286047000.9,N,1.1
1502838475.6,286047000.5,N,1.1
1502838495.5,286046998.5,N,1.2
1502838515.3,286047001.2,N,1.2
1502838535.1,286047001.2,N,1.2
1502838555.9,286046998.3,N,1.3
1502838575.7,286046999.0,N,1.3
1502838595.6,286046999.2,N,1.4
1502838615.4,286046997.0,N,1.5
1502838635.2,286046996.9,N,1.7
1502838655.1,286046997.3,N,1.7
1502838656.0,286046997.3,N,1.8
1502838675.8,286046994.9,N,2.1
1502838695.6,286046997.8,N,2.1
1502838715.5,286046997.9,N,2.1
1502838735.3,286046997.3,N,2.1
1502838755.2,286046997.8,N,2.1
1502838775.0,286046997.7,N,2.1
1502838775.9,286046997.7,N,2.0
1502838795.7,286046996.7,N,2.0
1502838815.6,286046998.0,N,1.9
1502838835.4,286046995.2,N,1.9
1502838855.3,286046996.2,N,1.9
1502838875.1,286046995.8,N,1.8
1502838876.0,286046995.8,N,1.8
1502838895.8,286046996.0,N,1.8
1502838915.7,286046993.8,Y,0.0
1502838935.5,286046996.8,P,0.7
1502838955.4,286046997.1,P,0.6
1502838975.2,286046995.6,P,0.9
1502838995.0,286046995.8,Y,0.0
1502838995.9,286046995.8,P,0.6
1502839015.8,286046999.3,N,1.5
1502839035.6,286046998.8,N,1.4
1502839055.5,286046998.8,N,1.3
1502839075.3,286046998.7,N,1.3
1502839095.1,286046998.2,N,1.2
1502839115.9,286046999.0,N,1.1
1502839135.7,286046999.3,N,1.1
1502839155.6,286046999.1,N,1.1
1502839175.4,286046998.7,N,1.0
1502839195.2,286046998.4,N,1.0
1502839215.1,286046996.8,Y,0.0
1502839216.0,286046996.8,P,0.8
1502839235.8,286046998.4,N,0.8
1502839255.7,286046998.3,N,0.7
1502839275.5,286047001.1,N,1.4
1502839295.3,286047001.0,N,1.6
1502839315.2,286047001.1,N,1.6
1502839335.0,286046998.7,N,1.5
1502839335.9,286046998.7,N,1.4
1502839355.7,286046999.1,N,1.4
1502839375.6,286046997.1,N,1.4
1502839395.4,286046997.0,N,1.5
1502839415.3,286046997.8,N,1.4
1502839435.1,286046997.8,N,1.4
1502839455.8,286046997.9,N,1.4
1502839475.7,286046997.5,N,1.4
1502839495.5,286046994.9,Y,0.0
1502839515.4,286046999.5,P,0.5
1502839535.2,286046996.7,P,1.2
1502839555.0,286046997.1,N,1.1
1502839555.9,286046997.1,N,1.1
1502839575.8,286046997.6,N,1.0
1502839595.6,286046997.7,N,0.9
1502839615.5,286046997.3,Y,0.0
1502839635.3,286046998.3,P,0.3
1502839655.1,286046998.8,P,0.4
1502839675.9,286046999.6,N,0.7
1502839695.7,286046996.6,Y,0.0
1502839715.6,286046998.6,P,0.0
1502839735.4,286047001.0,P,1.1
1502839755.2,286047000.0,N,1.0
1502839775.1,286047000.7,N,1.0
1502839776.0,286047000.7,N,1.0
1502839795.8,286047000.5,N,0.9
1502839815.6,286047000.7,N,0.9
1502839835.5,286047000.7,N,0.9
1502839855.3,286047000.5,N,0.8
1502839875.2,286046998.2,N,1.0
1502839895.9,286047000.9,N,1.0
1502839915.7,286047000.9,N,1.0
1502839935.6,286047000.8,N,0.9
1502839955.4,286047001.0,N,0.9
1502839975.3,286047000.2,N,0.9
1502839995.1,286047002.4,N,1.0
1502839996.0,286047002.4,N,1.1
1502840015.8,286046999.7,N,1.1
1502840035.7,286047002.8,N,1.2
1502840055.5,286047000.0,N,1.1
1502840075.4,286047011.9,Y,0.0
1502840095.2,286047000.4,P,0.1
1502840115.0,286046999.7,P,0.4
1502840115.9,286046999.7,N,0.4
1502840135.8,286047002.6,Y,0.0
1502840155.6,286046999.8,P,0.1
1502840175.5,286046999.7,N,0.2
1502840195.3,286046999.8,N,0.1
1502840215.1,286047002.7,Y,0.0
1502840235.9,286047002.6,P,1.4
1502840255.7,286047001.9,N,1.2
1502840275.6,286047001.6,N,1.0
1502840295.4,286047001.6,N,0.9
1502840315.2,286047001.6,N,0.8
1502840335.1,286047002.1,N,0.8
1502840336.0,286047002.1,N,0.8
1502840355.8,286047001.5,N,0.7
1502840375.6,286047001.5,N,0.7
1502840395.5,286047001.8,N,0.7
1502840415.3,286047002.1,Y,0.0
1502840435.2,286047000.3,P,0.7
1502840455.9,286047002.8,P,1.0
1502840475.7,286047002.5,N,1.0
1502840495.6,286047002.2,N,0.9
1502840515.4,286047002.5,N,0.8
1502840535.3,286047001.6,N,0.8
1502840555.1,286047001.6,N,0.7
1502840556.0,286047001.6,N,0.7
1502840575.8,286047002.0,N,0.7
1502840595.7,286047001.5,N,0.6
1502840615.5,286047004.0,Y,0.0
1502840635.4,286047000.3,P,0.8
1502840655.2,286047002.3,N,0.9
1502840675.0,286047002.2,N,0.8
1502840675.9,286047002.2,N,0.8
1502840695.8,286047001.3,N,0.7
1502840715.6,286047002.0,N,0.7
1502840735.4,286047004.0,Y,0.0
1502840755.3,286047000.0,P,0.9
1502840775.1,286047000.3,N,0.8
1502840795.9,286047000.7,N,0.7
1502840815.7,286047000.4,N,0.6
1502840835.5,286046999.7,N,0.6
1502840855.4,286047002.1,Y,0.0
1502840875.2,286046999.9,P,0.3
1502840895.1,286047000.2,N,0.2
1502840896.0,286047000.2,N,0.2
1502840915.8,286047002.8,Y,0.0
1502840935.6,286047000.6,P,0.2
1502840955.5,286047000.9,P,0.3
1502840975.3,286047000.7,N,0.3
1502840995.2,286047002.6,Y,0.0
1502841015.9,286047000.2,P,0.2
1502841035.7,286047002.8,P,1.1
1502841055.6,286047000.4,N,1.0
1502841075.4,286047000.5,N,1.0
1502841095.2,286046998.2,N,1.3
1502841115.1,286047000.4,N,1.2
1502841116.0,286047000.4,N,1.2
1502841135.8,286047000.9,N,1.1
1502841155.7,286047000.0,N,1.1
1502841175.5,286047002.7,N,1.2
1502841195.3,286047000.1,N,1.2
1502841215.2,286047000.5,N,1.1
1502841235.0,286047000.1,N,1.1
1502841235.9,286047000.1,N,1.0
1502841255.8,286047000.3,N,1.0
1502841275.6,286047000.0,N,1.0
1502841295.4,286047000.0,N,1.0
1502841315.3,286047002.4,N,1.0
1502841335.1,286047002.1,N,1.1
1502841355.9,286047002.3,N,1.1
1502841375.7,286047002.4,N,1.1
1502841395.5,286047002.6,N,1.2
1502841415.4,286047002.2,N,1.2
1502841435.2,286047001.5,N,1.2
1502841455.1,286047002.0,N,1.1
1502841456.0,286047002.0,N,1.1
1502841475.8,286047002.0,N,1.1
1502841495.6,286047001.7,N,1.1
1502841515.5,286047001.7,N,1.1
1502841535.3,286047001.4,N,1.1
1502841555.2,286047001.8,N,1.1
1502841575.9,286047001.9,N,1.1
1502841595.7,286047001.4,N,1.1
